| time (UTC) | temp F | wind direction | speed MPH | gust MPH | rain 1hr in | rain 24hr in | rain mn in | humidity % | barometer mb |
| 20260505093223 | 54 | 311 | 0.0 | 0.0 | 0.00 | 0.00 | 0.00 | 82 | 1012.8 |
| 20260505090223 | 54 | 311 | 0.0 | 0.0 | 0.00 | 0.00 | 0.00 | 81 | 1012.4 |
| 20260505083223 | 55 | 311 | 0.0 | 1.0 | 0.00 | 0.00 | 0.00 | 81 | 1012.3 |
| 20260505080223 | 55 | 311 | 0.0 | 1.0 | 0.00 | 0.00 | 0.00 | 80 | 1012.4 |
| 20260505073222 | 55 | 311 | 0.0 | 2.0 | 0.00 | 0.00 | 0.00 | 79 | 1011.9 |
| 20260505063222 | 57 | 302 | 0.0 | 4.0 | 0.00 | 0.00 | 0.00 | 74 | 1011.3 |
| 20260505060222 | 59 | 330 | 0.0 | 2.0 | 0.00 | 0.00 | 0.00 | 71 | 1010.8 |
| 20260505053222 | 60 | 341 | 0.0 | 1.0 | 0.00 | 0.00 | 0.00 | 67 | 1010.7 |
| 20260505050222 | 62 | 341 | 0.0 | 4.0 | 0.00 | 0.00 | 0.00 | 64 | 1010.5 |
| 20260505033222 | 68 | 323 | 0.0 | 5.0 | 0.00 | 0.00 | 0.00 | 55 | 1009.2 |
| 20260505030222 | 71 | 192 | 0.0 | 7.0 | 0.00 | 0.00 | 0.00 | 58 | 1008.6 |
| 20260505023222 | 72 | 154 | 0.0 | 7.0 | 0.00 | 0.00 | 0.00 | 55 | 1008.3 |
| 20260505020222 | 73 | 142 | 2.0 | 7.0 | 0.00 | 0.00 | 0.00 | 53 | 1008.3 |
| 20260505013221 | 74 | 169 | 3.0 | 9.0 | 0.00 | 0.00 | 0.00 | 50 | 1008.4 |
| 20260505010221 | 77 | 228 | 0.0 | 5.0 | 0.00 | 0.00 | 0.00 | 45 | 1008.6 |
| 20260505003220 | 76 | 252 | 0.0 | 5.0 | 0.00 | 0.00 | 0.00 | 44 | 1008.7 |
| 20260505000220 | 75 | 153 | 2.0 | 7.0 | 0.00 | 0.00 | 0.00 | 45 | 1009.0 |
| 20260504233220 | 74 | 236 | 0.0 | 9.0 | 0.00 | 0.00 | 0.00 | 45 | 1009.1 |
| 20260504230220 | 74 | 309 | 0.0 | 7.0 | 0.00 | 0.00 | 0.00 | 45 | 1009.3 |
| 20260504223219 | 73 | 159 | 1.0 | 7.0 | 0.00 | 0.00 | 0.00 | 48 | 1009.8 |
| 20260504220219 | 72 | 174 | 0.0 | 8.0 | 0.00 | 0.00 | 0.00 | 48 | 1010.1 |
| 20260504213219 | 71 | 163 | 3.0 | 7.0 | 0.00 | 0.00 | 0.00 | 49 | 1010.4 |
| 20260504210219 | 70 | 156 | 3.0 | 9.0 | 0.00 | 0.00 | 0.00 | 50 | 1010.7 |
| 20260504200217 | 66 | 165 | 0.0 | 9.0 | 0.00 | 0.00 | 0.00 | 57 | 1011.3 |
| 20260504183218 | 60 | 184 | 1.0 | 7.0 | 0.00 | 0.00 | 0.00 | 68 | 1012.1 |
| 20260504180217 | 60 | 167 | 2.0 | 7.0 | 0.00 | 0.00 | 0.00 | 70 | 1012.0 |
| 20260504173217 | 59 | 144 | 5.0 | 10.0 | 0.00 | 0.00 | 0.00 | 71 | 1012.1 |
| 20260504170217 | 58 | 153 | 3.0 | 8.0 | 0.00 | 0.00 | 0.00 | 72 | 1011.8 |
| 20260504150217 | 57 | 100 | 3.0 | 7.0 | 0.00 | 0.00 | 0.00 | 76 | 1011.2 |
| 20260504140217 | 56 | 123 | 0.0 | 6.0 | 0.00 | 0.00 | 0.00 | 77 | 1010.6 |
| 20260504130217 | 57 | 139 | 0.0 | 4.0 | 0.00 | 0.00 | 0.00 | 75 | 1009.7 |
| 20260504120217 | 58 | 159 | 0.0 | 4.0 | 0.00 | 0.00 | 0.00 | 72 | 1008.6 |
| 20260504110217 | 56 | 252 | 0.0 | 0.0 | 0.00 | 0.00 | 0.00 | 79 | 1007.8 |
| 20260504100217 | 57 | 252 | 0.0 | 0.0 | 0.00 | 0.00 | 0.00 | 77 | 1007.1 |